Location: Piolenc
(44.1794°N, 4.7641°E)
Time: 04:50:47
(UTC+00:00)

USA 308 - Pass Details

Date: 27 January 2021
Orbit: 557 x 589 km, 53.9° (Epoch: 26 February)

Event Time Altitude Azimuth Distance (km) Brightness Sun altitude
Exits shadow 04:52:22 81° 359° (N) 601 2.8 -23.6°
Drops below altitude 10° 04:56:38 10° 53° (NE) 1,921 6.2 -22.8°
Sets 04:58:55 0° 54° (NE) 2,825 7.2 -22.4°
